Theta_e
310 310 310 310 310 310 310 310 310 310 310 311 311 312 312 312 312 312 311 310 310 310 310 308 307 307 306 303 302 301 299 299 301 301 295 292 290 288 286 285 286 287 286
308 308 309 310 310 310 310 310 309 309 309 309 309 310 310 311 311 309 308 308 309 309 308 307 306 306 305 304 302 300 299 299 298 299 291 288 286 286 285 285 285 285 289
308 309 310 310 308 308 308 308 308 308 307 307 307 308 309 309 308 308 308 307 307 307 307 307 306 305 304 302 301 300 299 297 296 296 287 286 285 286 285 286 287 286 288
306 306 307 307 307 307 307 307 306 306 306 306 306 307 307 307 307 307 306 306 306 306 306 306 305 304 303 302 301 300 298 295 293 292 287 286 286 285 286 284 283 284 284
303 303 303 303 304 305 305 305 305 305 305 305 305 305 305 305 306 306 305 305 305 305 305 304 304 303 302 302 300 299 296 293 289 289 288 286 284 284 283 283 283 283 283
303 302 302 302 302 303 302 303 303 303 303 303 304 304 304 304 305 305 305 304 303 302 301 301 301 299 299 298 297 296 296 293 289 289 286 285 284 285 284 283 283 283 283
301 301 301 300 299 300 300 300 300 301 302 302 302 302 302 303 303 303 303 302 300 299 297 297 296 296 295 295 294 292 291 290 290 289 286 286 285 287 286 283 283 284 284
300 300 298 296 296 296 297 298 299 299 299 300 300 300 300 301 301 301 299 297 296 295 293 293 292 292 291 291 290 289 289 288 288 288 289 289 289 288 285 285 285 285 284
299 298 297 295 295 294 294 295 295 296 297 298 298 298 297 298 297 297 295 294 292 291 290 289 289 289 289 289 288 288 287 287 287 287 287 287 286 287 287 287 285 284 283
296 295 295 294 293 293 293 293 294 294 295 295 295 295 294 294 294 293 290 291 290 288 287 287 287 287 287 287 287 287 286 286 286 286 286 287 288 288 288 287 286 284 283
293 293 293 292 291 291 291 291 292 292 292 292 292 292 291 291 291 289 289 289 287 285 284 284 285 286 286 287 286 286 286 286 286 287 286 286 286 285 284 285 284 284 283
292 291 291 291 290 290 289 290 290 290 289 289 289 288 287 287 287 288 288 287 285 284 284 284 285 286 286 286 285 285 286 286 286 287 287 285 285 285 285 284 283 283 282
291 291 289 289 289 288 288 288 288 288 287 287 286 285 284 285 287 287 286 285 284 284 284 285 285 286 287 286 286 286 286 286 287 286 284 284 284 284 283 283 282 281 280
287 287 287 287 287 287 286 286 285 285 285 285 284 284 284 285 287 286 286 285 284 284 284 285 286 286 286 286 286 286 286 286 286 285 284 284 284 283 282 281 280 278 277
285 285 285 285 286 286 285 285 284 284 284 284 284 284 284 284 286 286 285 285 284 284 284 285 286 286 286 286 286 285 285 284 284 284 284 284 283 282 280 279 278 276 275
284 283 283 283 284 285 284 285 285 285 285 285 285 284 284 285 286 286 285 285 285 284 284 284 284 284 284 284 284 284 284 283 283 282 282 282 281 280 278 277 276 275 274
282 283 283 284 284 284 285 285 286 286 286 286 286 285 285 285 286 286 286 286 286 285 285 284 284 283 283 282 282 282 281 281 280 280 279 279 278 277 276 275 274 273 272
280 281 282 284 284 284 285 284 284 283 282 282 283 285 286 286 286 286 286 286 285 284 283 281 281 280 280 280 279 279 279 278 278 277 277 276 276 275 275 274 273 272 270
278 279 281 284 284 284 284 284 283 281 280 280 281 283 282 285 285 285 285 285 282 280 280 279 278 278 277 277 276 276 276 276 275 275 274 273 273 272 272 271 270 269 268
277 279 281 284 284 284 283 282 280 279 279 279 280 280 281 282 283 282 281 281 279 278 277 276 275 275 275 274 274 274 273 273 272 272 271 270 270 270 269 269 267 267 266
276 277 282 283 283 282 282 280 279 278 278 277 277 279 279 280 277 276 276 275 275 274 274 274 273 273 273 273 272 272 271 270 270 269 268 267 267 266 266 265 265 264 264
275 277 280 282 282 281 280 280 277 277 277 276 275 274 276 276 275 274 274 274 273 272 272 272 271 270 269 268 268 268 267 267 266 266 266 266 265 265 264 264 263 263 263
274 276 278 279 280 279 278 277 276 276 275 274 274 273 273 273 272 272 271 270 269 268 268 267 267 267 267 267 266 266 266 266 265 265 264 264 264 263 263 263 262 262 262
274 275 276 276 276 276 276 275 275 275 274 273 272 271 271 270 269 268 267 267 267 266 266 266 266 266 266 265 265 265 265 265 264 264 263 263 263 262 262 262 262 262 261
273 273 273 273 273 273 273 273 273 272 272 271 269 268 267 267 266 266 266 265 265 265 265 265 265 265 265 265 264 264 264 263 263 263 263 263 262 262 262 261 261 261 260
271 271 271 272 271 272 272 271 270 270 269 268 267 267 266 266 265 265 265 265 265 264 264 264 264 264 264 264 264 264 264 264 264 263 263 262 262 262 261 261 260 260 260
Wind_Speed
15 16 16 17 17 19 21 25 27 28 30 32 33 33 34 34 34 36 38 35 35 36 38 38 40 40 39 33 38 36 32 30 19 18 19 23 25 29 32 37 41 39 36
19 19 19 20 21 23 26 27 29 31 31 32 33 33 33 34 34 34 35 35 36 37 38 37 38 38 39 37 36 37 36 36 29 24 18 23 25 28 29 34 38 38 35
18 19 19 21 23 25 28 30 31 32 31 30 30 32 33 34 32 34 35 34 35 37 37 38 38 38 37 35 35 34 34 31 32 21 14 19 18 25 27 26 31 29 27
19 19 20 21 23 26 28 30 31 30 29 28 28 30 32 34 34 33 34 35 35 36 36 36 36 37 37 35 35 37 33 29 27 22 15 14 15 15 22 22 19 21 28
23 23 22 21 22 23 25 25 26 26 27 27 27 28 29 31 32 33 33 33 33 35 34 33 34 34 34 34 34 33 30 26 21 20 13 11 12 12 18 18 16 24 25
28 28 28 28 28 27 26 25 24 24 24 25 26 26 27 27 28 30 30 29 29 29 31 30 29 28 28 27 27 28 27 26 22 18 13 12 13 17 20 21 18 10 5
31 31 30 31 31 30 30 29 27 25 24 24 24 23 25 24 24 25 25 25 23 24 25 25 26 24 22 21 19 18 19 17 19 25 20 19 19 24 23 18 19 18 13
36 36 34 33 31 29 26 25 26 27 25 24 23 21 21 20 19 19 19 19 20 20 19 19 19 19 17 16 14 16 13 13 16 17 19 20 20 22 23 24 25 18 13
34 36 37 36 35 35 34 28 24 22 21 20 19 18 16 14 16 16 17 16 17 17 15 14 13 14 12 12 15 16 14 17 13 13 13 9 12 13 21 18 16 16 8
33 34 34 32 31 31 31 29 26 21 19 16 15 15 15 13 13 13 11 14 13 12 11 10 9 8 9 11 14 17 18 18 17 14 12 9 9 9 10 14 14 16 7
29 30 30 28 27 26 26 24 23 21 17 14 13 13 14 13 11 7 9 9 9 7 6 5 5 4 7 11 9 13 18 20 16 15 13 10 9 10 12 10 10 12 14
30 31 31 30 27 25 24 22 19 17 15 14 13 12 11 9 7 7 6 3 4 6 6 5 5 6 8 10 7 10 12 17 16 6 8 7 9 11 9 9 11 10 13
30 31 31 30 27 22 22 21 18 14 14 14 11 9 7 6 8 8 6 6 3 6 6 6 7 8 11 12 10 14 11 11 13 9 5 3 5 4 5 6 7 9 9
27 27 28 27 23 19 18 18 17 16 13 12 10 9 7 7 12 10 9 8 8 11 11 10 10 12 10 8 7 12 11 6 4 3 4 5 5 5 5 7 10 11 9
26 26 26 24 21 19 17 14 13 13 12 11 10 10 9 6 11 10 8 9 9 11 13 13 11 11 13 9 7 6 4 2 2 5 7 6 6 6 8 9 9 12 9
26 22 18 19 19 17 13 9 5 5 2 2 3 7 7 8 11 9 10 12 13 12 14 13 11 8 4 2 1 2 3 4 5 3 3 3 5 6 7 7 8 9 11
26 24 22 23 19 15 10 4 8 10 9 8 7 7 9 11 11 11 10 12 11 10 11 11 11 9 8 6 4 4 4 4 3 2 1 1 0 2 4 7 7 7 7
26 29 25 23 19 15 12 11 12 13 13 20 20 19 13 10 10 12 12 13 15 13 13 12 10 8 6 5 4 3 3 4 3 2 1 1 2 3 5 7 9 8 6
26 27 23 23 19 18 17 15 13 14 15 16 15 14 14 13 13 11 9 13 15 14 11 11 7 6 6 5 4 3 3 3 2 2 2 3 3 3 4 5 5 6 7
27 27 24 24 22 21 20 19 16 16 15 13 12 9 8 11 12 12 13 13 13 13 10 9 8 6 5 3 3 2 2 2 2 2 2 3 3 4 5 5 6 6 6
25 24 22 23 22 23 23 22 22 20 17 15 12 10 10 16 17 15 15 13 11 10 8 6 4 2 1 1 1 2 1 1 2 2 2 3 3 3 4 4 5 5 5
22 20 21 22 24 24 24 24 24 22 20 19 15 12 12 13 13 13 12 10 8 6 5 3 2 1 1 1 1 2 2 2 2 3 3 4 4 4 4 3 4 5 6
18 18 20 21 24 25 24 24 23 23 21 17 14 13 13 12 11 10 9 8 7 5 4 4 3 2 1 2 2 3 3 3 4 4 3 3 3 3 3 4 5 6 7
15 16 18 20 22 24 25 24 23 23 21 17 15 13 12 11 9 8 7 6 5 5 4 3 2 2 3 3 4 4 5 5 5 5 5 4 4 4 5 7 7 8 8
11 13 17 19 21 23 23 23 23 21 18 16 14 12 10 9 8 7 6 6 5 5 4 4 4 5 5 5 6 6 6 6 6 7 7 8 7 7 8 9 9 10 9
9 12 15 17 18 21 21 21 20 18 16 13 11 9 8 8 8 8 7 6 6 7 7 7 8 8 8 8 8 8 8 9 9 9 9 9 9 10 11 11 12 12 11
Wind_Direction
330 321 312 302 293 285 282 283 284 287 284 277 274 269 263 259 256 255 255 250 248 250 248 245 246 248 247 242 240 238 234 231 242 252 236 232 231 226 222 225 225 228 226
329 316 317 312 307 297 291 292 292 293 293 287 279 272 268 263 259 256 255 251 249 249 253 248 247 249 246 243 241 238 237 237 232 243 219 212 216 219 220 220 220 224 233
350 346 336 327 320 311 305 301 298 296 296 291 282 274 271 268 259 257 255 251 251 257 256 254 256 250 246 243 240 239 239 236 235 236 204 204 205 207 207 222 225 230 228
350 346 340 332 323 316 310 306 303 299 295 293 286 278 273 271 266 261 258 257 259 260 263 262 260 255 253 251 247 246 241 235 230 215 207 196 201 206 209 202 206 222 227
347 342 338 331 324 319 314 309 301 296 293 290 285 278 274 268 265 263 261 261 262 263 262 262 264 265 265 264 258 254 249 233 216 205 200 183 172 167 188 196 195 210 211
341 339 337 335 331 329 324 319 311 304 296 291 285 281 275 270 268 268 268 265 264 263 265 267 269 270 267 266 264 262 260 234 212 202 187 172 170 189 189 189 183 170 190
334 335 336 335 330 328 324 320 317 310 302 297 293 285 279 274 270 268 268 267 267 269 272 274 273 269 265 262 256 250 247 231 234 212 187 184 184 193 187 187 190 192 200
328 333 333 332 328 325 320 316 313 310 306 300 294 289 284 280 272 267 265 265 267 268 268 267 265 266 262 254 238 221 226 214 211 223 228 204 194 190 204 205 213 209 212
325 325 325 327 325 324 323 322 318 309 302 297 292 289 288 281 271 269 268 262 261 264 263 260 256 253 247 237 218 199 188 179 182 175 166 169 187 220 219 211 194 187 200
322 318 317 318 317 316 317 316 312 307 300 294 289 284 277 271 270 266 247 253 251 253 254 248 240 240 220 204 202 188 165 168 160 163 174 196 169 173 192 202 198 194 190
314 313 312 311 309 309 307 308 306 302 295 285 272 276 275 269 256 234 242 248 248 232 226 220 195 233 179 187 202 194 178 172 162 153 156 152 171 186 199 216 236 240 232
315 313 312 310 311 308 304 302 296 290 283 277 275 271 265 261 235 202 203 230 224 201 203 217 193 166 167 175 171 165 155 172 171 175 156 178 209 225 234 245 249 251 250
312 311 310 309 309 304 300 296 289 281 271 265 260 258 246 219 191 163 124 115 129 139 141 132 132 146 160 156 138 143 150 164 171 172 174 237 287 275 250 250 245 233 228
305 305 306 305 306 302 297 294 289 280 262 250 246 242 220 205 168 128 116 124 107 111 112 115 113 125 137 144 140 150 146 146 159 212 280 302 303 289 260 235 219 213 205
307 304 298 296 295 294 289 287 286 281 268 266 250 231 204 186 164 142 119 114 98 111 113 114 109 109 111 113 105 88 72 36 326 301 302 302 287 257 233 230 228 212 207
297 298 289 288 283 282 278 281 270 280 242 255 218 201 204 177 137 128 120 106 102 105 106 109 107 111 108 124 129 64 22 347 337 328 310 291 266 251 237 227 225 217 217
281 284 280 281 273 259 241 174 125 108 115 94 101 124 141 132 134 134 121 116 126 119 106 105 106 108 101 95 77 62 64 42 40 19 347 350 258 223 223 226 225 227 235
281 280 271 268 255 232 211 175 153 136 107 93 89 94 114 130 133 139 147 135 128 115 114 105 98 94 86 66 46 54 71 70 61 51 38 294 266 260 245 244 244 250 249
285 282 269 252 234 219 201 186 175 156 135 120 111 111 107 127 140 149 159 133 122 119 119 117 116 113 106 107 106 82 68 57 33 347 322 304 300 281 266 263 256 252 257
284 281 260 234 219 207 196 181 166 157 137 119 108 112 129 135 129 122 119 124 126 124 122 118 120 118 117 101 88 75 62 42 12 347 346 330 300 275 275 282 280 268 262
283 278 253 218 200 193 186 175 172 159 134 120 115 127 144 142 129 122 119 117 116 119 122 122 117 109 96 28 351 339 349 334 310 305 306 292 290 293 292 288 286 265 254
277 267 236 207 192 182 177 176 167 150 143 141 134 125 140 138 134 130 127 128 132 136 142 142 162 162 166 297 322 316 313 295 290 305 299 288 285 275 271 274 262 248 241
267 247 222 200 186 178 170 168 159 152 148 149 152 145 148 142 142 142 143 149 152 161 165 179 197 198 229 270 283 288 286 293 299 292 280 276 272 275 274 274 268 261 259
248 228 205 184 172 166 165 160 158 154 153 154 156 157 155 155 156 160 162 167 177 189 197 212 236 260 279 284 284 282 282 283 285 286 289 287 276 268 268 268 268 267 262
222 199 186 173 164 162 153 155 153 154 155 157 161 165 165 166 175 183 191 197 206 216 229 240 255 263 264 266 269 271 277 284 287 288 288 284 280 270 263 263 263 262 263
188 173 162 154 155 149 149 149 150 153 156 161 171 175 185 190 198 206 213 222 232 241 251 260 262 262 265 268 270 273 279 282 282 282 280 278 278 274 268 266 264 265 264